Regional Weather Roundup
Issued by NWS Cleveland, OH

Home | Current Version | Previous Version | Text Only | Print | Product List | Glossary Off
Versions: 1 2 3 4 5 6 7 8 9 10 11 12 13 14 15 16 17 18 19 20 21 22 23 24 25 26 27 28 29 30 31 32 33 34 35 36 37 38 39 40 41 42 43 44 45 46 47 48 49 50

000
ASUS41 KCLE 271300
RWRCLE
OHIO REGIONAL WEATHER ROUNDUP
NATIONAL WEATHER SERVICE WILMINGTON, OH
800 AM EST TUE JAN 27 2015

NOTE: "FAIR" INDICATES FEW OR NO CLOUDS BELOW 12,000 FEET WITH NO
SIGNIFICANT WEATHER AND/OR OBSTRUCTIONS TO VISIBILITY.

OHZ001>008-015>018-024>027-034-035-043-044-271400-
   NORTHWEST OHIO

CITY           SKY/WX    TMP DP  RH WIND       PRES   REMARKS
DEFIANCE       MOCLDY    15  10  80 NE3       30.06R
FINDLAY        CLOUDY    13   9  84 N7        30.02R FOG     WCI   3
TOLEDO EXPRESS CLOUDY    13   9  84 N6        30.06R WCI   4
TOLEDO EXEC    PTCLDY    12   7  80 N3        30.07R HAZE
LIMA           CLOUDY    13   8  81 NE3       30.02R HAZE
$$

OHZ009>014-019>023-028>033-038-089-271400-
   NORTHEAST OHIO

CITY           SKY/WX    TMP DP  RH WIND       PRES   REMARKS
CLE-HOPKINS    FLURRIES  18  13  80 N9        30.02R WCI   7
CLE-LAKEFRONT  CLOUDY    19  14  81 N13       30.01R WCI   6
CUY CO. ARPT   LGT SNOW  19  16  86 NE12      29.97  WCI   7
LORAIN-ELYRIA  LGT SNOW  18  14  84 N10       30.01R FOG     WCI   6
ASHTABULA      LGT SNOW  17  13  84 N7        29.97R FOG     WCI   8
AKRON-CANTON   LGT SNOW  18  13  80 N6        29.94R WCI  10
WOOSTER        NOT AVBL
MANSFIELD      CLOUDY    11   9  92 NW6       29.96R WCI   1
YOUNGSTOWN     LGT SNOW  17  13  84 N10       29.93R FOG     WCI   5
$$

OHZ042-051>053-060>062-070>072-077>081-271400-
  SOUTHWEST OHIO

CITY           SKY/WX    TMP DP  RH WIND       PRES   REMARKS
CINC-COVINGTON CLOUDY    20  13  74 NE8       30.00R WCI  10
CINC-LUNKEN    CLEAR     17  12  80 NE7       30.06R WCI   8
HAMILTON       PTCLDY    17  12  80 E3        30.04R
DAYTON         NOT AVBL
WRIGHT-PAT AFB NOT AVBL
DAYTON GENERAL PTCLDY    12   9  87 NE7       30.00R WCI   1
WILMINGTON     CLEAR     10   6  84 NE6       29.99R FOG     WCI   0
$$

OHZ036-037-039>041-045>050-054>059-063>069-073>076-082>088-271400-
  CENTRAL AND SOUTHEAST OHIO

CITY           SKY/WX    TMP DP  RH WIND       PRES   REMARKS
COLUMBUS       MOCLDY     9   5  84 N8        30.02R FOG     WCI  -3
OSU AIRPORT    MOCLDY     5   3  91 N5        30.01R FOG     WCI  -4
BOLTON FIELD   NOT AVBL
RICKENBACK AFB NOT AVBL
NEWARK         CLOUDY    12   8  84 N3        29.99R
MARION         CLOUDY     2  -2  83 CALM      30.01R FOG
LANCASTER      CLOUDY     5   1  83 CALM      30.01R FOG
ZANESVILLE     CLOUDY    14  10  84 NW8       29.98R WCI   3
NEW PHILLY     CLOUDY    19  13  77 NW7       29.97R WCI  10
$$


USA.gov is the U.S. government's official web portal to all federal, state and local government web resources and services.